TimeCST,TemperatureF,Dew PointF,Humidity,Sea Level PressureIn,VisibilityMPH,Wind Direction,Wind SpeedMPH,Gust SpeedMPH,PrecipitationIn,Events,Conditions,WindDirDegrees,DateUTC
12:15 AM,35.6,28.4,75,30.41,10.0,NE,4.6,-,N/A,,Clear,40,2013-01-07 06:15:00
12:35 AM,35.6,28.4,75,30.41,10.0,NE,5.8,-,N/A,,Clear,50,2013-01-07 06:35:00
12:55 AM,35.6,28.4,75,30.40,10.0,ENE,4.6,-,N/A,,Clear,60,2013-01-07 06:55:00
1:15 AM,33.8,28.4,81,30.40,10.0,ENE,3.5,-,N/A,,Clear,70,2013-01-07 07:15:00
1:35 AM,33.8,28.4,81,30.40,10.0,NE,5.8,-,N/A,,Clear,50,2013-01-07 07:35:00
1:55 AM,32.0,26.6,80,30.40,10.0,NE,5.8,-,N/A,,Clear,40,2013-01-07 07:55:00
2:15 AM,33.8,28.4,81,30.40,10.0,NE,4.6,-,N/A,,Clear,50,2013-01-07 08:15:00
2:35 AM,33.8,28.4,81,30.40,10.0,ENE,3.5,-,N/A,,Clear,70,2013-01-07 08:35:00
2:55 AM,33.8,26.6,75,30.41,10.0,Calm,Calm,-,N/A,,Clear,0,2013-01-07 08:55:00
3:35 AM,32.0,26.6,80,30.40,10.0,NE,3.5,-,N/A,,Clear,40,2013-01-07 09:35:00
3:55 AM,30.2,26.6,86,30.40,10.0,NNE,4.6,-,N/A,,Clear,20,2013-01-07 09:55:00
4:15 AM,30.2,26.6,86,30.40,10.0,NE,5.8,-,N/A,,Clear,40,2013-01-07 10:15:00
4:35 AM,30.2,24.8,80,30.39,2.5,NE,9.2,-,N/A,,Clear,40,2013-01-07 10:35:00
5:15 AM,32.0,26.6,80,30.38,10.0,ENE,8.1,-,N/A,,Clear,60,2013-01-07 11:15:00
5:35 AM,32.0,26.6,80,30.38,10.0,ENE,9.2,-,N/A,,Clear,70,2013-01-07 11:35:00
5:55 AM,32.0,26.6,80,30.39,10.0,ENE,8.1,-,N/A,,Clear,70,2013-01-07 11:55:00
6:35 AM,30.2,24.8,80,30.40,10.0,ENE,6.9,-,N/A,,Clear,60,2013-01-07 12:35:00
6:55 AM,30.2,24.8,80,30.40,10.0,ENE,6.9,-,N/A,,Clear,60,2013-01-07 12:55:00
7:15 AM,30.2,26.6,86,30.40,9.0,ENE,9.2,-,N/A,,Clear,60,2013-01-07 13:15:00
7:35 AM,30.2,24.8,80,30.40,9.0,ENE,6.9,-,N/A,,Clear,70,2013-01-07 13:35:00
7:55 AM,32.0,26.6,80,30.41,9.0,ENE,5.8,-,N/A,,Clear,70,2013-01-07 13:55:00
8:35 AM,33.8,26.6,75,30.42,10.0,ENE,4.6,-,N/A,,Clear,70,2013-01-07 14:35:00
8:55 AM,33.8,26.6,75,30.43,10.0,East,4.6,-,N/A,,Clear,100,2013-01-07 14:55:00
9:15 AM,35.6,26.6,70,30.43,10.0,East,8.1,-,N/A,,Clear,80,2013-01-07 15:15:00
9:35 AM,35.6,26.6,70,30.44,10.0,East,5.8,-,N/A,,Clear,90,2013-01-07 15:35:00
9:55 AM,35.6,26.6,70,30.45,10.0,ENE,4.6,-,N/A,,Clear,60,2013-01-07 15:55:00
10:35 AM,37.4,26.6,65,30.46,8.0,Calm,Calm,-,N/A,,Clear,0,2013-01-07 16:35:00
10:55 AM,39.2,26.6,61,30.47,3.0,Calm,Calm,-,N/A,,Clear,0,2013-01-07 16:55:00
11:15 AM,39.2,26.6,61,30.44,2.0,SE,3.5,-,N/A,,Clear,130,2013-01-07 17:15:00
11:35 AM,39.2,24.8,56,30.42,1.8,ESE,4.6,-,N/A,,Clear,110,2013-01-07 17:35:00
11:55 AM,41.0,24.8,53,30.41,1.0,Calm,Calm,-,N/A,,Clear,0,2013-01-07 17:55:00
12:35 PM,42.8,26.6,53,30.35,1.5,ENE,5.8,-,N/A,,Clear,60,2013-01-07 18:35:00
1:15 PM,44.6,26.6,49,30.33,0.2,East,4.6,-,N/A,,Unknown,100,2013-01-07 19:15:00
1:55 PM,46.4,26.6,46,30.32,0.2,SSE,5.8,-,N/A,,Unknown,150,2013-01-07 19:55:00
2:15 PM,46.4,26.6,46,30.31,0.5,South,3.5,-,N/A,,Unknown,170,2013-01-07 20:15:00
2:35 PM,48.2,26.6,43,30.31,4.0,South,4.6,-,N/A,,Clear,180,2013-01-07 20:35:00
2:55 PM,46.4,26.6,46,30.30,0.2,SE,3.5,-,N/A,,Unknown,140,2013-01-07 20:55:00
3:35 PM,46.4,26.6,46,30.29,2.5,Calm,Calm,-,N/A,,Clear,0,2013-01-07 21:35:00
3:55 PM,46.4,26.6,46,30.28,0.2,Calm,Calm,-,N/A,,Unknown,0,2013-01-07 21:55:00
4:15 PM,46.4,26.6,46,30.28,1.5,Calm,Calm,-,N/A,,Clear,0,2013-01-07 22:15:00
4:35 PM,48.2,26.6,43,30.28,10.0,Calm,Calm,-,N/A,,Clear,0,2013-01-07 22:35:00
5:15 PM,44.6,26.6,49,30.27,10.0,Calm,Calm,-,N/A,,Clear,0,2013-01-07 23:15:00
5:35 PM,44.6,28.4,53,30.27,10.0,Calm,Calm,-,N/A,,Clear,0,2013-01-07 23:35:00
5:55 PM,42.8,30.2,61,30.27,10.0,Calm,Calm,-,N/A,,Clear,0,2013-01-07 23:55:00
6:35 PM,42.8,28.4,57,30.27,4.0,Calm,Calm,-,N/A,,Clear,0,2013-01-08 00:35:00
6:55 PM,41.0,28.4,61,30.27,0.5,East,4.6,-,N/A,,Unknown,80,2013-01-08 00:55:00
7:15 PM,42.8,28.4,57,30.27,0.5,East,4.6,-,N/A,,Unknown,100,2013-01-08 01:15:00
7:55 PM,39.2,30.2,70,30.27,3.0,Calm,Calm,-,N/A,,Clear,0,2013-01-08 01:55:00
8:15 PM,39.2,30.2,70,30.26,3.0,Calm,Calm,-,N/A,,Clear,0,2013-01-08 02:15:00
8:35 PM,39.2,28.4,65,30.26,1.8,East,4.6,-,N/A,,Clear,90,2013-01-08 02:35:00
9:15 PM,39.2,28.4,65,30.24,2.0,East,6.9,-,N/A,,Clear,90,2013-01-08 03:15:00
9:35 PM,39.2,28.4,65,30.25,10.0,ESE,3.5,-,N/A,,Clear,120,2013-01-08 03:35:00
9:55 PM,39.2,28.4,65,30.25,10.0,ESE,4.6,-,N/A,,Clear,120,2013-01-08 03:55:00
10:15 PM,39.2,28.4,65,30.25,10.0,SE,4.6,-,N/A,,Clear,130,2013-01-08 04:15:00
10:35 PM,37.4,28.4,70,30.25,10.0,ESE,3.5,-,N/A,,Clear,110,2013-01-08 04:35:00
11:15 PM,37.4,28.4,70,30.24,10.0,East,4.6,-,N/A,,Clear,100,2013-01-08 05:15:00
11:35 PM,37.4,28.4,70,30.23,10.0,SE,5.8,-,N/A,,Clear,130,2013-01-08 05:35:00
11:55 PM,37.4,28.4,70,30.23,10.0,Calm,Calm,-,N/A,,Clear,0,2013-01-08 05:55:00